#timestamp,LO_Frequency,Hit,StdDev 
1456916415.1,286047004.5,N
1456916416.0,286047004.5,N
1456916435.8,286047008.6,N
1456916455.6,286047015.4,N
1456916475.5,286047016.3,N
1456916495.3,286047017.1,N
1456916515.1,286047017.0,N
1456916535.9,286047019.9,N
1456916555.7,286047019.5,N
1456916575.5,286047021.0,N
1456916595.4,286047022.3,N
1456916615.2,286047024.6,N
1456916635.0,286047028.4,N
1456916635.9,286047028.4,N
1456916655.8,286047025.5,N
1456916675.6,286047026.7,N
1456916695.4,286047028.2,N
1456916715.2,286047027.6,N
1456916735.1,286047024.5,N
1456916736.0,286047024.5,N
1456916755.8,286047022.1,N
1456916775.6,286047020.5,N
1456916795.5,286047021.5,N
1456916815.3,286047016.8,N
1456916835.1,286047007.9,N
1456916855.9,286047007.3,N
1456916875.7,286047006.2,N
1456916895.5,286047009.1,N
1456916915.4,286047007.7,N
1456916935.2,286047007.8,N
1456916955.0,286047012.3,N
1456916955.9,286047012.3,N
1456916975.8,286047008.3,N
1456916995.6,286047012.0,N
1456917015.4,286047008.6,N
1456917035.3,286047004.5,N
1456917055.1,286047001.8,N
1456917056.0,286047001.8,N
1456917075.8,286047000.2,N
1456917095.7,286046998.6,N
1456917115.5,286047001.1,N
1456917135.3,286046999.9,N
1456917155.1,286047003.2,N
1456917175.9,286047007.0,N
1456917195.7,286047007.4,N
1456917215.5,286047006.9,N
1456917235.4,286047004.1,N
1456917255.2,286047001.2,N
1456917275.0,286046997.4,N
1456917275.9,286046997.4,N
1456917295.8,286046991.5,N
1456917315.6,286046988.4,N
1456917335.4,286046985.8,N
1456917355.3,286046986.7,N
1456917375.1,286046985.5,N
1456917376.0,286046985.5,N
1456917395.8,286046986.7,N
1456917415.7,286046984.4,N
1456917435.5,286046981.4,N
1456917455.3,286046980.3,N
1456917475.2,286046976.0,N
1456917495.9,286046980.4,N
1456917515.7,286046980.0,N
1456917535.5,286046975.8,N
1456917555.4,286046977.7,N
1456917575.2,286046978.0,N
1456917595.0,286046979.5,N
1456917595.9,286046979.5,N
1456917615.8,286046975.9,N
1456917635.6,286046978.5,N
1456917655.4,286046975.2,N
1456917675.3,286046972.2,N
1456917695.1,286046968.7,N
1456917696.0,286046968.7,N
1456917715.8,286046972.3,N
1456917735.7,286046968.2,Y
1456917755.5,286046987.9,P
1456917775.3,286046987.8,P
1456917795.2,286046987.2,P
1456917815.9,286046989.5,Y
1456917835.7,286047004.0,P
1456917855.6,286047005.1,N
1456917875.4,286047007.8,N
1456917895.2,286047010.4,N
1456917915.1,286047015.1,N
1456917916.0,286047015.1,N
1456917935.8,286047017.1,N
1456917955.6,286047016.6,N
1456917975.5,286047018.8,N
1456917995.3,286047017.2,N
1456918015.1,286047015.4,N
1456918035.9,286047014.9,N
1456918055.7,286047012.8,N
1456918075.5,286047015.9,N
1456918095.3,286047019.5,N
1456918115.2,286047022.6,N
1456918135.0,286047024.2,N
1456918135.9,286047024.2,N
1456918155.7,286047022.9,N
1456918175.6,286047021.7,N
1456918195.4,286047021.9,N
1456918215.2,286047022.4,N
1456918235.1,286047026.9,Y
1456918236.0,286047026.9,P
1456918255.8,286047013.4,N
1456918275.6,286047015.3,N
1456918295.5,286047019.7,Y
1456918315.3,286047001.0,P
1456918335.1,286046998.5,N
1456918355.9,286046998.9,N
1456918375.7,286046999.6,N
1456918395.5,286047001.1,N
1456918415.4,286047001.9,N
1456918435.2,286047003.5,N
1456918455.0,286046998.2,N
1456918455.9,286046998.2,N
1456918475.8,286046995.0,N
1456918495.6,286046992.0,N
1456918515.4,286046988.1,N
1456918535.2,286046987.3,N
1456918555.1,286046989.6,N
1456918556.0,286046989.6,N
1456918575.8,286046987.6,N
1456918595.6,286046987.4,N
1456918615.5,286046991.4,N
1456918635.3,286046993.1,N
1456918655.1,286046988.6,N
1456918675.9,286046987.6,N
1456918695.7,286046991.1,N
1456918715.5,286046994.7,N
1456918735.4,286046994.1,N
1456918755.2,286046992.0,N
1456918775.0,286046996.8,N
1456918775.9,286046996.8,N
1456918795.8,286047002.6,N
1456918815.6,286046999.9,N
1456918835.4,286046996.6,N
1456918855.2,286046996.0,N
1456918875.1,286046992.2,N
1456918876.0,286046992.2,N
1456918895.8,286046996.4,N
1456918915.6,286046998.7,N
1456918935.5,286046995.4,N
1456918955.3,286046995.9,N
1456918975.1,286046992.9,N
1456918995.9,286046994.0,N
1456919015.7,286046997.3,N
1456919035.5,286046996.3,N
1456919055.4,286046991.3,N
1456919075.2,286046988.8,N
1456919095.0,286046988.4,Y
1456919095.9,286046988.4,P
1456919115.8,286046988.8,P
1456919135.6,286046987.7,P
1456919155.4,286046988.6,Y
1456919175.3,286046996.5,P
1456919195.1,286046998.1,N
1456919215.8,286047001.9,N
1456919235.7,286047001.2,N
1456919255.5,286046998.2,N
1456919275.3,286046999.4,N
1456919295.2,286046997.1,N
1456919315.9,286046996.1,N
1456919335.7,286046992.3,N
1456919355.6,286046992.4,N
1456919375.4,286046994.4,N
1456919395.2,286046988.6,Y
1456919415.1,286046992.3,P
1456919416.0,286046992.3,P
1456919435.8,286046992.1,P
1456919455.6,286046993.5,Y
1456919475.5,286047000.8,P
1456919495.3,286046999.8,N
1456919515.1,286046998.5,N
1456919535.9,286047002.3,N
1456919555.7,286047001.3,N
1456919575.5,286047005.8,N
1456919595.3,286047006.5,N
1456919615.2,286047006.5,N
1456919635.0,286047004.8,N
1456919635.9,286047004.8,N
1456919655.7,286047006.9,N
1456919675.6,286047004.7,N
1456919695.4,286047005.1,N
1456919715.2,286047005.0,N
1456919735.1,286047002.9,N
1456919736.0,286047002.9,N
1456919755.8,286047002.9,N
1456919775.6,286047005.4,N
1456919795.5,286047004.2,N
1456919815.3,286047002.5,N
1456919835.1,286046999.4,N
1456919855.9,286047001.2,N
1456919875.7,286047005.5,N
1456919895.5,286047010.0,Y
1456919915.4,286047003.8,P
1456919935.2,286047007.0,P
1456919955.0,286047009.2,P
1456919955.9,286047009.2,Y
1456919975.8,286047002.5,P
1456919995.6,286047001.6,N
